Year,Month,Day,Hour,Minute,Value (Times are PST for temperature in C)
2018,09,29,00,00,12.50
2018,09,29,00,01,12.50
2018,09,29,00,02,12.50
2018,09,29,00,03,12.40
2018,09,29,00,04,12.40
2018,09,29,00,05,12.40
2018,09,29,00,06,12.40
2018,09,29,00,07,12.40
2018,09,29,00,08,12.40
2018,09,29,00,09,12.40
2018,09,29,00,10,12.40
2018,09,29,00,11,12.40
2018,09,29,00,12,12.40
2018,09,29,00,13,12.40
2018,09,29,00,14,12.50
2018,09,29,00,15,12.50
2018,09,29,00,16,12.50
2018,09,29,00,17,12.50
2018,09,29,00,18,12.60
2018,09,29,00,19,12.70
2018,09,29,00,20,12.80
2018,09,29,00,21,12.80
2018,09,29,00,22,13.00
2018,09,29,00,23,13.00
2018,09,29,00,24,13.10
2018,09,29,00,25,13.10
2018,09,29,00,26,13.20
2018,09,29,00,27,13.20
2018,09,29,00,28,13.20
2018,09,29,00,29,13.20
2018,09,29,00,30,13.20
2018,09,29,00,31,13.20
2018,09,29,00,32,13.30
2018,09,29,00,33,13.30
2018,09,29,00,34,13.30
2018,09,29,00,35,13.30
2018,09,29,00,36,13.30
2018,09,29,00,37,13.20
2018,09,29,00,38,13.20
2018,09,29,00,39,13.20
2018,09,29,00,40,13.20
2018,09,29,00,41,13.20
2018,09,29,00,42,13.20
2018,09,29,00,43,13.20
2018,09,29,00,44,13.30
2018,09,29,00,45,13.30
2018,09,29,00,46,13.40
2018,09,29,00,47,13.40
2018,09,29,00,48,13.40
2018,09,29,00,49,13.40
2018,09,29,00,50,13.40
2018,09,29,00,51,13.40
2018,09,29,00,52,13.50
2018,09,29,00,53,13.50
2018,09,29,00,54,13.60
2018,09,29,00,55,13.60
2018,09,29,00,56,13.60
2018,09,29,00,57,13.60
2018,09,29,00,58,13.70
2018,09,29,00,59,13.70
2018,09,29,01,00,13.70
2018,09,29,01,01,13.70
2018,09,29,01,02,13.70
2018,09,29,01,03,13.70
2018,09,29,01,04,13.70
2018,09,29,01,05,13.70
2018,09,29,01,06,13.70
2018,09,29,01,07,13.60
2018,09,29,01,08,13.60
2018,09,29,01,09,13.50
2018,09,29,01,10,13.50
2018,09,29,01,11,13.50
2018,09,29,01,12,13.50
2018,09,29,01,13,13.40
2018,09,29,01,14,13.40
2018,09,29,01,15,13.40
2018,09,29,01,16,13.40
2018,09,29,01,17,13.40
2018,09,29,01,18,13.40
2018,09,29,01,19,13.40
2018,09,29,01,20,13.40
2018,09,29,01,21,13.40
2018,09,29,01,22,13.40
2018,09,29,01,23,13.40
2018,09,29,01,24,13.40
2018,09,29,01,25,13.40
2018,09,29,01,26,13.40
2018,09,29,01,27,13.40
2018,09,29,01,28,13.50
2018,09,29,01,29,13.50
2018,09,29,01,30,13.50
2018,09,29,01,31,13.50
2018,09,29,01,32,13.50
2018,09,29,01,33,13.50
2018,09,29,01,34,13.50
2018,09,29,01,35,13.60
2018,09,29,01,36,13.60
2018,09,29,01,37,13.60
2018,09,29,01,38,13.60
2018,09,29,01,39,13.60
2018,09,29,01,40,13.60
2018,09,29,01,41,13.60
2018,09,29,01,42,13.60
2018,09,29,01,43,13.60
2018,09,29,01,44,13.60
2018,09,29,01,45,13.60
2018,09,29,01,46,13.60
2018,09,29,01,47,13.60
2018,09,29,01,48,13.60
2018,09,29,01,49,13.60
2018,09,29,01,50,13.60
2018,09,29,01,51,13.60
2018,09,29,01,52,13.60
2018,09,29,01,53,13.60
2018,09,29,01,54,13.60
2018,09,29,01,55,13.60
2018,09,29,01,56,13.60
2018,09,29,01,57,13.60
2018,09,29,01,58,13.60
2018,09,29,01,59,13.60
2018,09,29,02,00,13.60
2018,09,29,02,01,13.50
2018,09,29,02,02,13.50
2018,09,29,02,03,13.40
2018,09,29,02,04,13.40
2018,09,29,02,05,13.40
2018,09,29,02,06,13.30
2018,09,29,02,07,13.30
2018,09,29,02,08,13.20
2018,09,29,02,09,13.10
2018,09,29,02,10,13.10
2018,09,29,02,11,13.10
2018,09,29,02,12,13.00
2018,09,29,02,13,13.00
2018,09,29,02,14,13.00
2018,09,29,02,15,13.00
2018,09,29,02,16,12.90
2018,09,29,02,17,12.90
2018,09,29,02,18,12.90
2018,09,29,02,19,12.90
2018,09,29,02,20,12.90
2018,09,29,02,21,12.90
2018,09,29,02,22,12.80
2018,09,29,02,23,12.80
2018,09,29,02,24,12.80
2018,09,29,02,25,12.70
2018,09,29,02,26,12.60
2018,09,29,02,27,12.60
2018,09,29,02,28,12.60
2018,09,29,02,29,12.60
2018,09,29,02,30,12.50
2018,09,29,02,31,12.50
2018,09,29,02,32,12.40
2018,09,29,02,33,12.30
2018,09,29,02,34,12.30
2018,09,29,02,35,12.30
2018,09,29,02,36,12.20
2018,09,29,02,37,12.20
2018,09,29,02,38,12.10
2018,09,29,02,39,12.10
2018,09,29,02,40,12.00
2018,09,29,02,41,12.00
2018,09,29,02,42,12.00
2018,09,29,02,43,11.90
2018,09,29,02,44,11.90
2018,09,29,02,45,11.90
2018,09,29,02,46,11.90
2018,09,29,02,47,11.80
2018,09,29,02,48,11.80
2018,09,29,02,49,11.80
2018,09,29,02,50,11.70
2018,09,29,02,51,11.70
2018,09,29,02,52,11.70
2018,09,29,02,53,11.70
2018,09,29,02,54,11.70
2018,09,29,02,55,11.70
2018,09,29,02,56,11.60
2018,09,29,02,57,11.60
2018,09,29,02,58,11.50
2018,09,29,02,59,11.50
2018,09,29,03,00,11.50
2018,09,29,03,01,11.40
2018,09,29,03,02,11.40
2018,09,29,03,03,11.40
2018,09,29,03,04,11.40
2018,09,29,03,05,11.30
2018,09,29,03,06,11.30
2018,09,29,03,07,11.30
2018,09,29,03,08,11.30
2018,09,29,03,09,11.30
2018,09,29,03,10,11.30
2018,09,29,03,11,11.30
2018,09,29,03,12,11.30
2018,09,29,03,13,11.30
2018,09,29,03,14,11.30
2018,09,29,03,15,11.30
2018,09,29,03,16,11.30
2018,09,29,03,17,11.30
2018,09,29,03,18,11.30
2018,09,29,03,19,11.30
2018,09,29,03,20,11.30
2018,09,29,03,21,11.30
2018,09,29,03,22,11.30
2018,09,29,03,23,11.20
2018,09,29,03,24,11.20
2018,09,29,03,25,11.20
2018,09,29,03,26,11.20
2018,09,29,03,27,11.20
2018,09,29,03,28,11.10
2018,09,29,03,29,11.10
2018,09,29,03,30,11.10
2018,09,29,03,31,11.20
2018,09,29,03,32,11.20
2018,09,29,03,33,11.20
2018,09,29,03,34,11.30
2018,09,29,03,35,11.30
2018,09,29,03,36,11.40
2018,09,29,03,37,11.40
2018,09,29,03,38,11.40
2018,09,29,03,39,11.40
2018,09,29,03,40,11.40
2018,09,29,03,41,11.40
2018,09,29,03,42,11.40
2018,09,29,03,43,11.60
2018,09,29,03,44,11.90
2018,09,29,03,45,12.10
2018,09,29,03,46,12.20
2018,09,29,03,47,12.20
2018,09,29,03,48,12.30
2018,09,29,03,49,12.40
2018,09,29,03,50,12.40
2018,09,29,03,51,12.40
2018,09,29,03,52,12.50
2018,09,29,03,53,12.70
2018,09,29,03,54,12.90
2018,09,29,03,55,13.30
2018,09,29,03,56,13.70
2018,09,29,03,57,14.10
2018,09,29,03,58,14.50
2018,09,29,03,59,14.90
2018,09,29,04,00,15.20
2018,09,29,04,01,15.50
2018,09,29,04,02,15.70
2018,09,29,04,03,15.80
2018,09,29,04,04,16.00
2018,09,29,04,05,16.10
2018,09,29,04,06,16.30
2018,09,29,04,07,16.40
2018,09,29,04,08,16.50
2018,09,29,04,09,16.70
2018,09,29,04,10,16.80
2018,09,29,04,11,16.90
2018,09,29,04,12,16.90
2018,09,29,04,13,16.90
2018,09,29,04,14,17.00
2018,09,29,04,15,17.10
2018,09,29,04,16,17.10
2018,09,29,04,17,17.20
2018,09,29,04,18,17.20
2018,09,29,04,19,17.20
2018,09,29,04,20,17.20
2018,09,29,04,21,17.30
2018,09,29,04,22,17.30
2018,09,29,04,23,17.30
2018,09,29,04,24,17.20
2018,09,29,04,25,17.20
2018,09,29,04,26,17.10
2018,09,29,04,27,16.80
2018,09,29,04,28,16.70
2018,09,29,04,29,16.60
2018,09,29,04,30,16.60
2018,09,29,04,31,16.50
2018,09,29,04,32,16.40
2018,09,29,04,33,16.30
2018,09,29,04,34,16.30
2018,09,29,04,35,16.20
2018,09,29,04,36,16.10
2018,09,29,04,37,16.00
2018,09,29,04,38,16.00
2018,09,29,04,39,16.00
2018,09,29,04,40,16.00
2018,09,29,04,41,16.10
2018,09,29,04,42,16.10
2018,09,29,04,43,16.10
2018,09,29,04,44,16.20
2018,09,29,04,45,16.30
2018,09,29,04,46,16.30
2018,09,29,04,47,16.40
2018,09,29,04,48,16.50
2018,09,29,04,49,16.50
2018,09,29,04,50,16.60
2018,09,29,04,51,16.70
2018,09,29,04,52,16.70
2018,09,29,04,53,16.70
2018,09,29,04,54,16.70
2018,09,29,04,55,16.70
2018,09,29,04,56,16.70
2018,09,29,04,57,16.80
2018,09,29,04,58,16.90
2018,09,29,04,59,16.90
2018,09,29,05,00,17.00
2018,09,29,05,01,17.10
2018,09,29,05,02,17.10
2018,09,29,05,03,17.20
2018,09,29,05,04,17.30
2018,09,29,05,05,17.30
2018,09,29,05,06,17.40
2018,09,29,05,07,17.40
2018,09,29,05,08,17.40
2018,09,29,05,09,17.40
2018,09,29,05,10,17.30
2018,09,29,05,11,17.40
2018,09,29,05,12,17.40
2018,09,29,05,13,17.40
2018,09,29,05,14,17.50
2018,09,29,05,15,17.50
2018,09,29,05,16,17.40
2018,09,29,05,17,17.40
2018,09,29,05,18,17.40
2018,09,29,05,19,17.40
2018,09,29,05,20,17.40
2018,09,29,05,21,17.40
2018,09,29,05,22,17.30
2018,09,29,05,23,17.30
2018,09,29,05,24,17.30
2018,09,29,05,25,17.30
2018,09,29,05,26,17.30
2018,09,29,05,27,17.30
2018,09,29,05,28,17.30
2018,09,29,05,29,17.30
2018,09,29,05,30,17.30
2018,09,29,05,31,17.40
2018,09,29,05,32,17.40
2018,09,29,05,33,17.40
2018,09,29,05,34,17.40
2018,09,29,05,35,17.50
2018,09,29,05,36,17.50
2018,09,29,05,37,17.50
2018,09,29,05,38,17.50
2018,09,29,05,39,17.50
2018,09,29,05,40,17.50
2018,09,29,05,41,17.50
2018,09,29,05,42,17.50
2018,09,29,05,43,17.50
2018,09,29,05,44,17.40
2018,09,29,05,45,17.40
2018,09,29,05,46,17.30
2018,09,29,05,47,17.40
2018,09,29,05,48,17.40
2018,09,29,05,49,17.40
2018,09,29,05,50,17.40
2018,09,29,05,51,17.50
2018,09,29,05,52,17.50
2018,09,29,05,53,17.50
2018,09,29,05,54,17.60
2018,09,29,05,55,17.60
2018,09,29,05,56,17.60
2018,09,29,05,57,17.70
2018,09,29,05,58,17.70
2018,09,29,05,59,17.70
2018,09,29,06,00,17.80
2018,09,29,06,01,17.90
2018,09,29,06,02,18.00
2018,09,29,06,03,18.00
2018,09,29,06,04,18.10
2018,09,29,06,05,18.10
2018,09,29,06,06,18.10
2018,09,29,06,07,18.10
2018,09,29,06,08,18.10
2018,09,29,06,09,18.10
2018,09,29,06,10,18.20
2018,09,29,06,11,18.20
2018,09,29,06,12,18.20
2018,09,29,06,13,18.10
2018,09,29,06,14,18.10
2018,09,29,06,15,18.10
2018,09,29,06,16,18.00
2018,09,29,06,17,18.00
2018,09,29,06,18,18.00
2018,09,29,06,19,18.00
2018,09,29,06,20,18.10
2018,09,29,06,21,18.20
2018,09,29,06,22,18.20
2018,09,29,06,23,18.20
2018,09,29,06,24,18.20
2018,09,29,06,25,18.20
2018,09,29,06,26,18.20
2018,09,29,06,27,18.20
2018,09,29,06,28,18.20
2018,09,29,06,29,18.20
2018,09,29,06,30,18.20
2018,09,29,06,31,18.20
2018,09,29,06,32,18.20
2018,09,29,06,33,18.20
2018,09,29,06,34,18.20
2018,09,29,06,35,18.20
2018,09,29,06,36,18.20
2018,09,29,06,37,18.20
2018,09,29,06,38,18.20
2018,09,29,06,39,18.20
2018,09,29,06,40,18.20
2018,09,29,06,41,18.20
2018,09,29,06,42,18.20
2018,09,29,06,43,18.20
2018,09,29,06,44,18.20
2018,09,29,06,45,18.20
2018,09,29,06,46,18.20
2018,09,29,06,47,18.20
2018,09,29,06,48,18.10
2018,09,29,06,49,18.10
2018,09,29,06,50,18.00
2018,09,29,06,51,18.00
2018,09,29,06,52,18.00
2018,09,29,06,53,18.10
2018,09,29,06,54,18.10
2018,09,29,06,55,18.10
2018,09,29,06,56,18.10
2018,09,29,06,57,18.10
2018,09,29,06,58,18.10
2018,09,29,06,59,18.10
2018,09,29,07,00,18.10
2018,09,29,07,01,18.10
2018,09,29,07,02,18.10
2018,09,29,07,03,18.10
2018,09,29,07,04,18.10
2018,09,29,07,05,18.10
2018,09,29,07,06,18.10
2018,09,29,07,07,18.10
2018,09,29,07,08,18.10
2018,09,29,07,09,18.10
2018,09,29,07,10,18.10
2018,09,29,07,11,18.10
2018,09,29,07,12,18.10
2018,09,29,07,13,18.10
2018,09,29,07,14,18.10
2018,09,29,07,15,18.10
2018,09,29,07,16,18.00
2018,09,29,07,17,18.00
2018,09,29,07,18,17.90
2018,09,29,07,19,17.90
2018,09,29,07,20,18.00
2018,09,29,07,21,18.00
2018,09,29,07,22,18.00
2018,09,29,07,23,18.00
2018,09,29,07,24,17.90
2018,09,29,07,25,17.90
2018,09,29,07,26,17.90
2018,09,29,07,27,17.90
2018,09,29,07,28,17.90
2018,09,29,07,29,17.90
2018,09,29,07,30,18.00
2018,09,29,07,31,18.00
2018,09,29,07,32,18.10
2018,09,29,07,33,18.10
2018,09,29,07,34,18.10
2018,09,29,07,35,18.10
2018,09,29,07,36,18.10
2018,09,29,07,37,18.10
2018,09,29,07,38,18.10
2018,09,29,07,39,18.10
2018,09,29,07,40,18.10
2018,09,29,07,41,18.10
2018,09,29,07,42,18.10
2018,09,29,07,43,18.20
2018,09,29,07,44,18.20
2018,09,29,07,45,18.20
2018,09,29,07,46,18.20
2018,09,29,07,47,18.20
2018,09,29,07,48,18.20
2018,09,29,07,49,18.20
2018,09,29,07,50,18.20
2018,09,29,07,51,18.30
2018,09,29,07,52,18.30
2018,09,29,07,53,18.30
2018,09,29,07,54,18.30
2018,09,29,07,55,18.30
2018,09,29,07,56,18.30
2018,09,29,07,57,18.30
2018,09,29,07,58,18.30
2018,09,29,07,59,18.30
2018,09,29,08,00,18.40
2018,09,29,08,01,18.40
2018,09,29,08,02,18.50
2018,09,29,08,03,18.60
2018,09,29,08,04,18.60
2018,09,29,08,05,18.60
2018,09,29,08,06,18.60
2018,09,29,08,07,18.60
2018,09,29,08,08,18.60
2018,09,29,08,09,18.60
2018,09,29,08,10,18.70
2018,09,29,08,11,18.70
2018,09,29,08,12,18.70
2018,09,29,08,13,18.70
2018,09,29,08,14,18.70
2018,09,29,08,15,18.70
2018,09,29,08,16,18.70
2018,09,29,08,17,18.70
2018,09,29,08,18,18.70
2018,09,29,08,19,18.70
2018,09,29,08,20,18.70
2018,09,29,08,21,18.70
2018,09,29,08,22,18.70
2018,09,29,08,23,18.70
2018,09,29,08,24,18.70
2018,09,29,08,25,18.70
2018,09,29,08,26,18.70
2018,09,29,08,27,18.60
2018,09,29,08,28,18.60
2018,09,29,08,29,18.60
2018,09,29,08,30,18.60
2018,09,29,08,31,18.60
2018,09,29,08,32,18.50
2018,09,29,08,33,18.50
2018,09,29,08,34,18.50
2018,09,29,08,35,18.50
2018,09,29,08,36,18.50
2018,09,29,08,37,18.50
2018,09,29,08,38,18.50
2018,09,29,08,39,18.60
2018,09,29,08,40,18.60
2018,09,29,08,41,18.60
2018,09,29,08,42,18.60
2018,09,29,08,43,18.60
2018,09,29,08,44,18.60
2018,09,29,08,45,18.60
2018,09,29,08,46,18.70
2018,09,29,08,47,18.70
2018,09,29,08,48,18.70
2018,09,29,08,49,18.70
2018,09,29,08,50,18.70
2018,09,29,08,51,18.80
2018,09,29,08,52,18.80
2018,09,29,08,53,18.80
2018,09,29,08,54,18.80
2018,09,29,08,55,18.80
2018,09,29,08,56,18.90
2018,09,29,08,57,18.90
2018,09,29,08,58,18.90
2018,09,29,08,59,19.00
2018,09,29,09,00,19.00
2018,09,29,09,01,19.00
2018,09,29,09,02,19.00
2018,09,29,09,03,19.00
2018,09,29,09,04,19.00
2018,09,29,09,05,19.00
2018,09,29,09,06,19.00
2018,09,29,09,07,19.10
2018,09,29,09,08,19.10
2018,09,29,09,09,19.10
2018,09,29,09,10,19.20
2018,09,29,09,11,19.20
2018,09,29,09,12,19.30
2018,09,29,09,13,19.40
2018,09,29,09,14,19.40
2018,09,29,09,15,19.50
2018,09,29,09,16,19.50
2018,09,29,09,17,19.50
2018,09,29,09,18,19.60
2018,09,29,09,19,19.60
2018,09,29,09,20,19.70
2018,09,29,09,21,19.70
2018,09,29,09,22,19.80
2018,09,29,09,23,19.80
2018,09,29,09,24,19.80
2018,09,29,09,25,19.80
2018,09,29,09,26,19.80
2018,09,29,09,27,19.70
2018,09,29,09,28,19.70
2018,09,29,09,29,19.60
2018,09,29,09,30,19.60
2018,09,29,09,31,19.60
2018,09,29,09,32,19.60
2018,09,29,09,33,19.50
2018,09,29,09,34,19.50
2018,09,29,09,35,19.50
2018,09,29,09,36,19.40
2018,09,29,09,37,19.50
2018,09,29,09,38,19.50
2018,09,29,09,39,19.50
2018,09,29,09,40,19.50
2018,09,29,09,41,19.50
2018,09,29,09,42,19.60
2018,09,29,09,43,19.60
2018,09,29,09,44,19.60
2018,09,29,09,45,19.60
2018,09,29,09,46,19.70
2018,09,29,09,47,19.80
2018,09,29,09,48,19.80
2018,09,29,09,49,19.80
2018,09,29,09,50,19.90
2018,09,29,09,51,19.90
2018,09,29,09,52,20.00
2018,09,29,09,53,20.00
2018,09,29,09,54,20.10
2018,09,29,09,55,20.10
2018,09,29,09,56,20.20
2018,09,29,09,57,20.20
2018,09,29,09,58,20.20
2018,09,29,09,59,20.10
2018,09,29,10,00,20.10
2018,09,29,10,01,20.10
2018,09,29,10,02,20.00
2018,09,29,10,03,20.00
2018,09,29,10,04,20.00
2018,09,29,10,05,20.00
2018,09,29,10,06,20.00
2018,09,29,10,07,20.00
2018,09,29,10,08,19.90
2018,09,29,10,09,19.90
2018,09,29,10,10,19.80
2018,09,29,10,11,19.80
2018,09,29,10,12,19.80
2018,09,29,10,13,19.70
2018,09,29,10,14,19.70
2018,09,29,10,15,19.60
2018,09,29,10,16,19.60
2018,09,29,10,17,19.60
2018,09,29,10,18,19.60
2018,09,29,10,19,19.60
2018,09,29,10,20,19.60
2018,09,29,10,21,19.60
2018,09,29,10,22,19.60
2018,09,29,10,23,19.60
2018,09,29,10,24,19.60
2018,09,29,10,25,19.60
2018,09,29,10,26,19.60
2018,09,29,10,27,19.60
2018,09,29,10,28,19.60
2018,09,29,10,29,19.60
2018,09,29,10,30,19.50
2018,09,29,10,31,19.60
2018,09,29,10,32,19.60
2018,09,29,10,33,19.60
2018,09,29,10,34,19.60
2018,09,29,10,35,19.60
2018,09,29,10,36,19.60
2018,09,29,10,37,19.60
2018,09,29,10,38,19.70
2018,09,29,10,39,19.70
2018,09,29,10,40,19.70
2018,09,29,10,41,19.70
2018,09,29,10,42,19.70
2018,09,29,10,43,19.80
2018,09,29,10,44,19.80
2018,09,29,10,45,19.70
2018,09,29,10,46,19.70
2018,09,29,10,47,19.70
2018,09,29,10,48,19.70
2018,09,29,10,49,19.70
2018,09,29,10,50,19.70
2018,09,29,10,51,19.70
2018,09,29,10,52,19.80
2018,09,29,10,53,19.80
2018,09,29,10,54,19.80
2018,09,29,10,55,19.70
2018,09,29,10,56,19.70
2018,09,29,10,57,19.70
2018,09,29,10,58,19.80
2018,09,29,10,59,19.80
2018,09,29,11,00,19.80
2018,09,29,11,01,19.80
2018,09,29,11,02,19.80
2018,09,29,11,03,19.80
2018,09,29,11,04,19.80
2018,09,29,11,05,19.80
2018,09,29,11,06,19.80
2018,09,29,11,07,19.80
2018,09,29,11,08,19.80
2018,09,29,11,09,19.80
2018,09,29,11,10,19.80
2018,09,29,11,11,19.80
2018,09,29,11,12,19.90
2018,09,29,11,13,19.90
2018,09,29,11,14,19.90
2018,09,29,11,15,19.90
2018,09,29,11,16,19.90
2018,09,29,11,17,19.90
2018,09,29,11,18,19.90
2018,09,29,11,19,20.00
2018,09,29,11,20,20.00
2018,09,29,11,21,20.00
2018,09,29,11,22,20.00
2018,09,29,11,23,20.00
2018,09,29,11,24,19.90
2018,09,29,11,25,19.90
2018,09,29,11,26,19.90
2018,09,29,11,27,19.80
2018,09,29,11,28,19.80
2018,09,29,11,29,19.80
2018,09,29,11,30,19.80
2018,09,29,11,31,19.80
2018,09,29,11,32,19.80
2018,09,29,11,33,19.80
2018,09,29,11,34,19.90
2018,09,29,11,35,19.90
2018,09,29,11,36,19.90
2018,09,29,11,37,20.00
2018,09,29,11,38,20.10
2018,09,29,11,39,20.10
2018,09,29,11,40,20.10
2018,09,29,11,41,20.10
2018,09,29,11,42,20.20
2018,09,29,11,43,20.20
2018,09,29,11,44,20.30
2018,09,29,11,45,20.30
2018,09,29,11,46,20.40
2018,09,29,11,47,20.40
2018,09,29,11,48,20.40
2018,09,29,11,49,20.40
2018,09,29,11,50,20.40
2018,09,29,11,51,20.40
2018,09,29,11,52,20.40
2018,09,29,11,53,20.40
2018,09,29,11,54,20.40
2018,09,29,11,55,20.50
2018,09,29,11,56,20.50
2018,09,29,11,57,20.40
2018,09,29,11,58,20.40
2018,09,29,11,59,20.30
2018,09,29,12,00,20.20
2018,09,29,12,01,20.20
2018,09,29,12,02,20.20
2018,09,29,12,03,20.10
2018,09,29,12,04,20.00
2018,09,29,12,05,20.00
2018,09,29,12,06,19.90
2018,09,29,12,07,19.90
2018,09,29,12,08,19.80
2018,09,29,12,09,19.80
2018,09,29,12,10,19.80
2018,09,29,12,11,19.70
2018,09,29,12,12,19.70
2018,09,29,12,13,19.70
2018,09,29,12,14,19.70
2018,09,29,12,15,19.70
2018,09,29,12,16,19.70
2018,09,29,12,17,19.70
2018,09,29,12,18,19.70
2018,09,29,12,19,19.70
2018,09,29,12,20,19.70
2018,09,29,12,21,19.70
2018,09,29,12,22,19.70
2018,09,29,12,23,19.70
2018,09,29,12,24,19.70
2018,09,29,12,25,19.70
2018,09,29,12,26,19.60
2018,09,29,12,27,19.60
2018,09,29,12,28,19.60
2018,09,29,12,29,19.60
2018,09,29,12,30,19.60
2018,09,29,12,31,19.60
2018,09,29,12,32,19.60
2018,09,29,12,33,19.60
2018,09,29,12,34,19.60
2018,09,29,12,35,19.60
2018,09,29,12,36,19.60
2018,09,29,12,37,19.60
2018,09,29,12,38,19.60
2018,09,29,12,39,19.60
2018,09,29,12,40,19.70
2018,09,29,12,41,19.70
2018,09,29,12,42,19.70
2018,09,29,12,43,19.70
2018,09,29,12,44,19.70
2018,09,29,12,45,19.80
2018,09,29,12,46,19.70
2018,09,29,12,47,19.70
2018,09,29,12,48,19.60
2018,09,29,12,49,19.60
2018,09,29,12,50,19.60
2018,09,29,12,51,19.60
2018,09,29,12,52,19.60
2018,09,29,12,53,19.50
2018,09,29,12,54,19.50
2018,09,29,12,55,19.50
2018,09,29,12,56,19.50
2018,09,29,12,57,19.50
2018,09,29,12,58,19.50
2018,09,29,12,59,19.50
2018,09,29,13,00,19.50
2018,09,29,13,01,19.50
2018,09,29,13,02,19.50
2018,09,29,13,03,19.50
2018,09,29,13,04,19.50
2018,09,29,13,05,19.50
2018,09,29,13,06,19.50
2018,09,29,13,07,19.50
2018,09,29,13,08,19.50
2018,09,29,13,09,19.50
2018,09,29,13,10,19.50
2018,09,29,13,11,19.50
2018,09,29,13,12,19.50
2018,09,29,13,13,19.50
2018,09,29,13,14,19.50
2018,09,29,13,15,19.50
2018,09,29,13,16,19.50
2018,09,29,13,17,19.50
2018,09,29,13,18,19.40
2018,09,29,13,19,19.40
2018,09,29,13,20,19.40
2018,09,29,13,21,19.40
2018,09,29,13,22,19.40
2018,09,29,13,23,19.40
2018,09,29,13,24,19.40
2018,09,29,13,25,19.30
2018,09,29,13,26,19.30
2018,09,29,13,27,19.30
2018,09,29,13,28,19.30
2018,09,29,13,29,19.30
2018,09,29,13,30,19.40
2018,09,29,13,31,19.40
2018,09,29,13,32,19.40
2018,09,29,13,33,19.40
2018,09,29,13,34,19.40
2018,09,29,13,35,19.40
2018,09,29,13,36,19.40
2018,09,29,13,37,19.40
2018,09,29,13,38,19.40
2018,09,29,13,39,19.40
2018,09,29,13,40,19.40
2018,09,29,13,41,19.40
2018,09,29,13,42,19.40
2018,09,29,13,43,19.40
2018,09,29,13,44,19.40
2018,09,29,13,45,19.40
2018,09,29,13,46,19.50
2018,09,29,13,47,19.40
2018,09,29,13,48,19.40
2018,09,29,13,49,19.40
2018,09,29,13,50,19.40
2018,09,29,13,51,19.40
2018,09,29,13,52,19.40
2018,09,29,13,53,19.40
2018,09,29,13,54,19.40
2018,09,29,13,55,19.40
2018,09,29,13,56,19.40
2018,09,29,13,57,19.40
2018,09,29,13,58,19.40
2018,09,29,13,59,19.40
2018,09,29,14,00,19.40
2018,09,29,14,01,19.40
2018,09,29,14,02,19.40
2018,09,29,14,03,19.40
2018,09,29,14,04,19.40
2018,09,29,14,05,19.40
2018,09,29,14,06,19.40
2018,09,29,14,07,19.40
2018,09,29,14,08,19.40
2018,09,29,14,09,19.30
2018,09,29,14,10,19.30
2018,09,29,14,11,19.30
2018,09,29,14,12,19.40
2018,09,29,14,13,19.40
2018,09,29,14,14,19.40
2018,09,29,14,15,19.40
2018,09,29,14,16,19.40
2018,09,29,14,17,19.40
2018,09,29,14,18,19.40
2018,09,29,14,19,19.40
2018,09,29,14,20,19.50
2018,09,29,14,21,19.50
2018,09,29,14,22,19.60
2018,09,29,14,23,19.60
2018,09,29,14,24,19.60
2018,09,29,14,25,19.60
2018,09,29,14,26,19.60
2018,09,29,14,27,19.60
2018,09,29,14,28,19.60
2018,09,29,14,29,19.60
2018,09,29,14,30,19.60
2018,09,29,14,31,19.60
2018,09,29,14,32,19.60
2018,09,29,14,33,19.60
2018,09,29,14,34,19.60
2018,09,29,14,35,19.60
2018,09,29,14,36,19.60
2018,09,29,14,37,19.60
2018,09,29,14,38,19.60
2018,09,29,14,39,19.60
2018,09,29,14,40,19.60
2018,09,29,14,41,19.60
2018,09,29,14,42,19.60
2018,09,29,14,43,19.60
2018,09,29,14,44,19.60
2018,09,29,14,45,19.60
2018,09,29,14,46,19.60
2018,09,29,14,47,19.60
2018,09,29,14,48,19.60
2018,09,29,14,49,19.60
2018,09,29,14,50,19.60
2018,09,29,14,51,19.60
2018,09,29,14,52,19.60
2018,09,29,14,53,19.60
2018,09,29,14,54,19.50
2018,09,29,14,55,19.50
2018,09,29,14,56,19.50
2018,09,29,14,57,19.50
2018,09,29,14,58,19.40
2018,09,29,14,59,19.40
2018,09,29,15,00,19.40
2018,09,29,15,01,19.40
2018,09,29,15,02,19.40
2018,09,29,15,03,19.40
2018,09,29,15,04,19.40
2018,09,29,15,05,19.40
2018,09,29,15,06,19.40
2018,09,29,15,07,19.40
2018,09,29,15,08,19.40
2018,09,29,15,09,19.50
2018,09,29,15,10,19.50
2018,09,29,15,11,19.50
2018,09,29,15,12,19.40
2018,09,29,15,13,19.40
2018,09,29,15,14,19.40
2018,09,29,15,15,19.40
2018,09,29,15,16,19.40
2018,09,29,15,17,19.30
2018,09,29,15,18,19.30
2018,09,29,15,19,19.30
2018,09,29,15,20,19.30
2018,09,29,15,21,19.30
2018,09,29,15,22,19.30
2018,09,29,15,23,19.30
2018,09,29,15,24,19.30
2018,09,29,15,25,19.30
2018,09,29,15,26,19.30
2018,09,29,15,27,19.30
2018,09,29,15,28,19.20
2018,09,29,15,29,19.20
2018,09,29,15,30,19.20
2018,09,29,15,31,19.20
2018,09,29,15,32,19.20
2018,09,29,15,33,19.20
2018,09,29,15,34,19.20
2018,09,29,15,35,19.20
2018,09,29,15,36,19.20
2018,09,29,15,37,19.20
2018,09,29,15,38,19.20
2018,09,29,15,39,19.20
2018,09,29,15,40,19.20
2018,09,29,15,41,19.20
2018,09,29,15,42,19.20
2018,09,29,15,43,19.20
2018,09,29,15,44,19.20
2018,09,29,15,45,19.20
2018,09,29,15,46,19.20
2018,09,29,15,47,19.20
2018,09,29,15,48,19.10
2018,09,29,15,49,19.10
2018,09,29,15,50,19.10
2018,09,29,15,51,19.10
2018,09,29,15,52,19.00
2018,09,29,15,53,19.00
2018,09,29,15,54,19.00
2018,09,29,15,55,19.00
2018,09,29,15,56,19.00
2018,09,29,15,57,19.00
2018,09,29,15,58,19.00
2018,09,29,15,59,19.00
2018,09,29,16,00,19.00
2018,09,29,16,01,19.10
2018,09,29,16,02,19.00
2018,09,29,16,03,19.00
2018,09,29,16,04,19.00
2018,09,29,16,05,19.00
2018,09,29,16,06,19.00
2018,09,29,16,07,19.00
2018,09,29,16,08,19.00
2018,09,29,16,09,19.10
2018,09,29,16,10,19.10
2018,09,29,16,11,19.10
2018,09,29,16,12,19.10
2018,09,29,16,13,19.10
2018,09,29,16,14,19.10
2018,09,29,16,15,19.10
2018,09,29,16,16,19.10
2018,09,29,16,17,19.20
2018,09,29,16,18,19.20
2018,09,29,16,19,19.20
2018,09,29,16,20,19.20
2018,09,29,16,21,19.20
2018,09,29,16,22,19.20
2018,09,29,16,23,19.10
2018,09,29,16,24,19.10
2018,09,29,16,25,19.10
2018,09,29,16,26,19.10
2018,09,29,16,27,19.10
2018,09,29,16,28,19.10
2018,09,29,16,29,19.20
2018,09,29,16,30,19.20
2018,09,29,16,31,19.20
2018,09,29,16,32,19.20
2018,09,29,16,33,19.20
2018,09,29,16,34,19.10
2018,09,29,16,35,19.10
2018,09,29,16,36,19.10
2018,09,29,16,37,19.10
2018,09,29,16,38,19.10
2018,09,29,16,39,19.10
2018,09,29,16,40,19.10
2018,09,29,16,41,19.10
2018,09,29,16,42,19.10
2018,09,29,16,43,19.10
2018,09,29,16,44,19.10
2018,09,29,16,45,19.10
2018,09,29,16,46,19.10
2018,09,29,16,47,19.20
2018,09,29,16,48,19.20
2018,09,29,16,49,19.20
2018,09,29,16,50,19.20
2018,09,29,16,51,19.20
2018,09,29,16,52,19.20
2018,09,29,16,53,19.20
2018,09,29,16,54,19.20
2018,09,29,16,55,19.20
2018,09,29,16,56,19.20
2018,09,29,16,57,19.10
2018,09,29,16,58,19.10
2018,09,29,16,59,19.10
2018,09,29,17,00,19.10
2018,09,29,17,01,19.10
2018,09,29,17,02,19.00
2018,09,29,17,03,19.00
2018,09,29,17,04,19.00
2018,09,29,17,05,19.00
2018,09,29,17,06,18.90
2018,09,29,17,07,18.90
2018,09,29,17,08,18.90
2018,09,29,17,09,18.90
2018,09,29,17,10,18.90
2018,09,29,17,11,18.90
2018,09,29,17,12,18.90
2018,09,29,17,13,18.90
2018,09,29,17,14,18.80
2018,09,29,17,15,18.80
2018,09,29,17,16,18.80
2018,09,29,17,17,18.80
2018,09,29,17,18,18.80
2018,09,29,17,19,18.80